Location: Svitavy
(49.7500°N, 16.4667°E)
Time: 01:25:28
(UTC+01:00)

ISS - Visible Passes

Search period start: 18 February 2019 00:00
Search period end: 28 February 2019 00:00
Orbit: 403 x 411 km, 51.6° (Epoch: 18 February)

Date Brightness Start Highest point End Pass type
(mag) Time Alt. Az. Time Alt. Az. Time Alt. Az.
24 Feb -1.1 05:43:43 10° S 05:45:57 17° SE 05:48:11 10° E visible
25 Feb -0.7 04:53:55 10° SSE 04:54:41 11° SE 04:55:26 10° ESE visible
26 Feb -2.2 05:36:11 10° SSW 05:39:09 32° SSE 05:42:07 10° E visible
27 Feb -1.7 04:46:31 17° S 04:47:46 21° SE 04:50:19 10° E visible
